Location: Sungai Bunut
(2.6333°N, 113.7333°E)
Time: 15:14:30
(UTC+00:00)

Courier 1B - Visible Passes

Search period start: 03 December 2023 00:00
Search period end: 13 December 2023 00:00
Orbit: 962 x 1208 km, 28.3° (Epoch: 02 December)

Date Brightness Start Highest point End Pass type
(mag) Time Alt. Az. Time Alt. Az. Time Alt. Az.
03 Dec 9.2 11:28:50 10° W 11:35:10 35° SSW 11:41:52 10° SE visible
03 Dec 10.3 13:28:21 10° SW 13:30:20 11° SSW 13:32:20 10° S visible
03 Dec 10.3 19:17:31 10° S 19:20:49 13° SSE 19:24:05 10° SE visible
03 Dec 9.0 21:08:50 10° SW 21:15:53 41° SSE 21:22:32 10° E visible
04 Dec 8.7 10:34:36 10° WNW 10:41:11 48° SSW 10:48:11 10° SE visible
04 Dec 10.2 12:32:08 10° SW 12:36:01 15° SSW 12:40:00 10° S visible
04 Dec 9.4 20:15:13 10° SSW 20:21:48 30° SSE 20:28:07 10° E visible
05 Dec 10.0 11:36:53 10° WSW 11:41:48 20° SSW 11:46:56 10° SSE visible
05 Dec 9.7 19:23:24 15° SSW 19:27:39 23° SSE 19:33:21 10° ESE visible
05 Dec 8.1 21:14:39 10° SW 21:22:18 73° SSE 21:29:28 10° ENE visible
06 Dec 9.7 10:42:07 10° W 10:47:43 26° SSW 10:53:37 10° SSE visible
06 Dec 10.1 18:34:26 17° SE 18:34:26 17° SE 18:38:09 10° ESE visible
06 Dec 8.5 20:21:26 13° SW 20:28:17 53° SSE 20:35:27 10° ENE visible
07 Dec 10.4 11:47:07 10° SW 11:48:43 11° SSW 11:50:21 10° S visible
07 Dec 8.9 19:32:29 35° S 19:34:13 39° SSE 19:41:10 10° E visible
07 Dec 7.8 21:21:00 10° WSW 21:28:39 66° NNW 21:35:51 10° NE visible
08 Dec 10.2 10:50:53 10° SW 10:54:29 15° SSW 10:58:11 10° S visible
08 Dec 9.8 18:43:30 21° ESE 18:43:30 21° ESE 18:46:35 10° E visible
08 Dec 7.8 20:30:29 31° WSW 20:34:38 89° NNW 20:42:06 10° ENE visible
09 Dec 8.1 19:41:22 65° ESE 19:41:22 65° ESE 19:48:09 10° ENE visible
09 Dec 8.4 21:28:21 11° W 21:35:02 39° NNW 21:41:47 10° NE visible
10 Dec 9.9 18:52:06 19° E 18:52:06 19° E 18:53:58 10° ENE visible
10 Dec 8.0 20:39:05 43° WNW 20:40:59 53° NNW 20:48:15 10° NE visible
11 Dec 8.5 19:49:39 43° NE 19:49:39 43° NE 19:54:32 10° NE visible
11 Dec 9.0 21:36:36 13° WNW 21:41:37 24° NNW 21:47:20 10° NNE visible
12 Dec 10.1 19:00:03 13° ENE 19:00:03 13° ENE 19:00:39 10° ENE visible
12 Dec 8.6 20:46:59 31° NNW 20:47:27 31° NNW 20:54:00 10° NNE visible
